Year,Month,Day,Hour,Minute,Value (Times are PST for temperature in C)
2017,05,05,00,00,12.20
2017,05,05,00,01,12.20
2017,05,05,00,02,12.20
2017,05,05,00,03,12.20
2017,05,05,00,04,12.20
2017,05,05,00,05,12.20
2017,05,05,00,06,12.20
2017,05,05,00,07,12.10
2017,05,05,00,08,12.10
2017,05,05,00,09,12.10
2017,05,05,00,10,12.10
2017,05,05,00,11,12.10
2017,05,05,00,12,12.00
2017,05,05,00,13,12.00
2017,05,05,00,14,11.90
2017,05,05,00,15,11.90
2017,05,05,00,16,11.90
2017,05,05,00,17,11.90
2017,05,05,00,18,11.80
2017,05,05,00,19,11.80
2017,05,05,00,20,11.80
2017,05,05,00,21,11.80
2017,05,05,00,22,11.80
2017,05,05,00,23,11.70
2017,05,05,00,24,11.70
2017,05,05,00,25,11.70
2017,05,05,00,26,11.70
2017,05,05,00,27,11.60
2017,05,05,00,28,11.60
2017,05,05,00,29,11.60
2017,05,05,00,30,11.60
2017,05,05,00,31,11.50
2017,05,05,00,32,11.50
2017,05,05,00,33,11.40
2017,05,05,00,34,11.40
2017,05,05,00,35,11.40
2017,05,05,00,36,11.40
2017,05,05,00,37,11.30
2017,05,05,00,38,11.30
2017,05,05,00,39,11.30
2017,05,05,00,40,11.30
2017,05,05,00,41,11.30
2017,05,05,00,42,11.30
2017,05,05,00,43,11.30
2017,05,05,00,44,11.30
2017,05,05,00,45,11.30
2017,05,05,00,46,11.30
2017,05,05,00,47,11.30
2017,05,05,00,48,11.30
2017,05,05,00,49,11.30
2017,05,05,00,50,11.30
2017,05,05,00,51,11.30
2017,05,05,00,52,11.30
2017,05,05,00,53,11.30
2017,05,05,00,54,11.30
2017,05,05,00,55,11.30
2017,05,05,00,56,11.30
2017,05,05,00,57,11.40
2017,05,05,00,58,11.40
2017,05,05,00,59,11.40
2017,05,05,01,00,11.40
2017,05,05,01,01,11.40
2017,05,05,01,02,11.40
2017,05,05,01,03,11.50
2017,05,05,01,04,11.50
2017,05,05,01,05,11.60
2017,05,05,01,06,11.60
2017,05,05,01,07,11.60
2017,05,05,01,08,11.60
2017,05,05,01,09,11.70
2017,05,05,01,10,11.70
2017,05,05,01,11,11.70
2017,05,05,01,12,11.80
2017,05,05,01,13,11.80
2017,05,05,01,14,11.80
2017,05,05,01,15,11.90
2017,05,05,01,16,11.90
2017,05,05,01,17,12.00
2017,05,05,01,18,12.00
2017,05,05,01,19,12.10
2017,05,05,01,20,12.10
2017,05,05,01,21,12.20
2017,05,05,01,22,12.20
2017,05,05,01,23,12.20
2017,05,05,01,24,12.20
2017,05,05,01,25,12.20
2017,05,05,01,26,12.20
2017,05,05,01,27,12.20
2017,05,05,01,28,12.20
2017,05,05,01,29,12.20
2017,05,05,01,30,12.20
2017,05,05,01,31,12.20
2017,05,05,01,32,12.20
2017,05,05,01,33,12.20
2017,05,05,01,34,12.20
2017,05,05,01,35,12.20
2017,05,05,01,36,12.20
2017,05,05,01,37,12.20
2017,05,05,01,38,12.20
2017,05,05,01,39,12.20
2017,05,05,01,40,12.20
2017,05,05,01,41,12.20
2017,05,05,01,42,12.20
2017,05,05,01,43,12.20
2017,05,05,01,44,12.20
2017,05,05,01,45,12.20
2017,05,05,01,46,12.20
2017,05,05,01,47,12.20
2017,05,05,01,48,12.20
2017,05,05,01,49,12.20
2017,05,05,01,50,12.30
2017,05,05,01,51,12.30
2017,05,05,01,52,12.30
2017,05,05,01,53,12.30
2017,05,05,01,54,12.30
2017,05,05,01,55,12.30
2017,05,05,01,56,12.30
2017,05,05,01,57,12.30
2017,05,05,01,58,12.30
2017,05,05,01,59,12.40
2017,05,05,02,00,12.40
2017,05,05,02,01,12.40
2017,05,05,02,02,12.40
2017,05,05,02,03,12.40
2017,05,05,02,04,12.40
2017,05,05,02,05,12.40
2017,05,05,02,06,12.40
2017,05,05,02,07,12.40
2017,05,05,02,08,12.50
2017,05,05,02,09,12.50
2017,05,05,02,10,12.50
2017,05,05,02,11,12.50
2017,05,05,02,12,12.60
2017,05,05,02,13,12.60
2017,05,05,02,14,12.60
2017,05,05,02,15,12.60
2017,05,05,02,16,12.60
2017,05,05,02,17,12.60
2017,05,05,02,18,12.60
2017,05,05,02,19,12.70
2017,05,05,02,20,12.70
2017,05,05,02,21,12.70
2017,05,05,02,22,12.70
2017,05,05,02,23,12.80
2017,05,05,02,24,12.80
2017,05,05,02,25,12.80
2017,05,05,02,26,12.80
2017,05,05,02,27,12.80
2017,05,05,02,28,12.80
2017,05,05,02,29,12.90
2017,05,05,02,30,12.90
2017,05,05,02,31,12.90
2017,05,05,02,32,12.90
2017,05,05,02,33,12.90
2017,05,05,02,34,12.90
2017,05,05,02,35,12.90
2017,05,05,02,36,13.00
2017,05,05,02,37,13.00
2017,05,05,02,38,13.00
2017,05,05,02,39,13.10
2017,05,05,02,40,13.10
2017,05,05,02,41,13.10
2017,05,05,02,42,13.10
2017,05,05,02,43,13.10
2017,05,05,02,44,13.20
2017,05,05,02,45,13.20
2017,05,05,02,46,13.20
2017,05,05,02,47,13.20
2017,05,05,02,48,13.20
2017,05,05,02,49,13.20
2017,05,05,02,50,13.20
2017,05,05,02,51,13.20
2017,05,05,02,52,13.20
2017,05,05,02,53,13.20
2017,05,05,02,54,13.20
2017,05,05,02,55,13.20
2017,05,05,02,56,13.20
2017,05,05,02,57,13.20
2017,05,05,02,58,13.20
2017,05,05,02,59,13.20
2017,05,05,03,00,13.20
2017,05,05,03,01,13.20
2017,05,05,03,02,13.20
2017,05,05,03,03,13.20
2017,05,05,03,04,13.30
2017,05,05,03,05,13.30
2017,05,05,03,06,13.30
2017,05,05,03,07,13.30
2017,05,05,03,08,13.30
2017,05,05,03,09,13.30
2017,05,05,03,10,13.30
2017,05,05,03,11,13.30
2017,05,05,03,12,13.30
2017,05,05,03,13,13.20
2017,05,05,03,14,13.20
2017,05,05,03,15,13.20
2017,05,05,03,16,13.20
2017,05,05,03,17,13.20
2017,05,05,03,18,13.20
2017,05,05,03,19,13.20
2017,05,05,03,20,13.20
2017,05,05,03,21,13.20
2017,05,05,03,22,13.20
2017,05,05,03,23,13.20
2017,05,05,03,24,13.20
2017,05,05,03,25,13.20
2017,05,05,03,26,13.20
2017,05,05,03,27,13.20
2017,05,05,03,28,13.20
2017,05,05,03,29,13.20
2017,05,05,03,30,13.20
2017,05,05,03,31,13.20
2017,05,05,03,32,13.20
2017,05,05,03,33,13.20
2017,05,05,03,34,13.20
2017,05,05,03,35,13.20
2017,05,05,03,36,13.20
2017,05,05,03,37,13.20
2017,05,05,03,38,13.20
2017,05,05,03,39,13.20
2017,05,05,03,40,13.20
2017,05,05,03,41,13.20
2017,05,05,03,42,13.20
2017,05,05,03,43,13.20
2017,05,05,03,44,13.20
2017,05,05,03,45,13.20
2017,05,05,03,46,13.10
2017,05,05,03,47,13.10
2017,05,05,03,48,13.10
2017,05,05,03,49,13.10
2017,05,05,03,50,13.10
2017,05,05,03,51,13.10
2017,05,05,03,52,13.10
2017,05,05,03,53,13.10
2017,05,05,03,54,13.00
2017,05,05,03,55,13.00
2017,05,05,03,56,13.00
2017,05,05,03,57,13.00
2017,05,05,03,58,12.90
2017,05,05,03,59,12.90
2017,05,05,04,00,12.90
2017,05,05,04,01,12.90
2017,05,05,04,02,12.90
2017,05,05,04,03,12.90
2017,05,05,04,04,12.90
2017,05,05,04,08,12.90
2017,05,05,04,09,12.90
2017,05,05,04,10,12.90
2017,05,05,04,11,12.90
2017,05,05,04,12,12.90
2017,05,05,04,13,12.90
2017,05,05,04,14,12.80
2017,05,05,04,15,12.80
2017,05,05,04,16,12.80
2017,05,05,04,17,12.70
2017,05,05,04,18,12.70
2017,05,05,04,19,12.70
2017,05,05,04,20,12.70
2017,05,05,04,21,12.70
2017,05,05,04,22,12.70
2017,05,05,04,23,12.70
2017,05,05,04,24,12.60
2017,05,05,04,25,12.60
2017,05,05,04,26,12.60
2017,05,05,04,27,12.60
2017,05,05,04,28,12.60
2017,05,05,04,29,12.60
2017,05,05,04,30,12.60
2017,05,05,04,31,12.60
2017,05,05,04,32,12.60
2017,05,05,04,33,12.60
2017,05,05,04,34,12.60
2017,05,05,04,35,12.60
2017,05,05,04,36,12.60
2017,05,05,04,37,12.60
2017,05,05,04,38,12.60
2017,05,05,04,39,12.60
2017,05,05,04,40,12.60
2017,05,05,04,41,12.60
2017,05,05,04,42,12.60
2017,05,05,04,43,12.60
2017,05,05,04,44,12.60
2017,05,05,04,45,12.60
2017,05,05,04,46,12.50
2017,05,05,04,47,12.60
2017,05,05,04,48,12.60
2017,05,05,04,49,12.60
2017,05,05,04,50,12.60
2017,05,05,04,51,12.60
2017,05,05,04,52,12.60
2017,05,05,04,53,12.60
2017,05,05,04,54,12.60
2017,05,05,04,55,12.60
2017,05,05,04,56,12.70
2017,05,05,04,57,12.70
2017,05,05,04,58,12.70
2017,05,05,04,59,12.60
2017,05,05,05,00,12.60
2017,05,05,05,01,12.60
2017,05,05,05,02,12.60
2017,05,05,05,03,12.60
2017,05,05,05,04,12.60
2017,05,05,05,05,12.60
2017,05,05,05,06,12.60
2017,05,05,05,07,12.60
2017,05,05,05,08,12.70
2017,05,05,05,09,12.70
2017,05,05,05,10,12.70
2017,05,05,05,11,12.70
2017,05,05,05,12,12.70
2017,05,05,05,13,12.80
2017,05,05,05,14,12.80
2017,05,05,05,15,12.80
2017,05,05,05,16,12.80
2017,05,05,05,17,12.80
2017,05,05,05,18,12.80
2017,05,05,05,19,12.80
2017,05,05,05,20,12.90
2017,05,05,05,21,12.90
2017,05,05,05,22,12.90
2017,05,05,05,23,12.90
2017,05,05,05,24,12.90
2017,05,05,05,25,13.00
2017,05,05,05,26,13.00
2017,05,05,05,27,13.00
2017,05,05,05,28,13.00
2017,05,05,05,29,13.00
2017,05,05,05,30,13.10
2017,05,05,05,31,13.10
2017,05,05,05,32,13.10
2017,05,05,05,33,13.10
2017,05,05,05,34,13.20
2017,05,05,05,35,13.20
2017,05,05,05,36,13.20
2017,05,05,05,37,13.20
2017,05,05,05,38,13.20
2017,05,05,05,39,13.20
2017,05,05,05,40,13.20
2017,05,05,05,41,13.20
2017,05,05,05,42,13.30
2017,05,05,05,43,13.30
2017,05,05,05,44,13.30
2017,05,05,05,45,13.30
2017,05,05,05,46,13.40
2017,05,05,05,47,13.40
2017,05,05,05,48,13.40
2017,05,05,05,49,13.50
2017,05,05,05,50,13.50
2017,05,05,05,51,13.60
2017,05,05,05,52,13.60
2017,05,05,05,53,13.60
2017,05,05,05,54,13.60
2017,05,05,05,55,13.70
2017,05,05,05,56,13.70
2017,05,05,05,57,13.70
2017,05,05,05,58,13.70
2017,05,05,05,59,13.70
2017,05,05,06,00,13.70
2017,05,05,06,01,13.80
2017,05,05,06,02,13.80
2017,05,05,06,03,13.80
2017,05,05,06,04,13.80
2017,05,05,06,05,13.80
2017,05,05,06,06,13.80
2017,05,05,06,07,13.90
2017,05,05,06,08,13.90
2017,05,05,06,09,13.90
2017,05,05,06,10,13.90
2017,05,05,06,11,13.90
2017,05,05,06,12,13.90
2017,05,05,06,13,13.90
2017,05,05,06,14,13.90
2017,05,05,06,15,13.90
2017,05,05,06,16,14.00
2017,05,05,06,17,14.00
2017,05,05,06,18,14.00
2017,05,05,06,19,14.00
2017,05,05,06,20,14.10
2017,05,05,06,21,14.10
2017,05,05,06,22,14.10
2017,05,05,06,23,14.10
2017,05,05,06,24,14.10
2017,05,05,06,25,14.10
2017,05,05,06,26,14.10
2017,05,05,06,27,14.10
2017,05,05,06,28,14.10
2017,05,05,06,29,14.20
2017,05,05,06,30,14.20
2017,05,05,06,31,14.20
2017,05,05,06,32,14.20
2017,05,05,06,33,14.20
2017,05,05,06,34,14.20
2017,05,05,06,35,14.20
2017,05,05,06,36,14.20
2017,05,05,06,37,14.20
2017,05,05,06,38,14.20
2017,05,05,06,39,14.20
2017,05,05,06,40,14.20
2017,05,05,06,41,14.10
2017,05,05,06,42,14.10
2017,05,05,06,43,14.10
2017,05,05,06,44,14.10
2017,05,05,06,45,14.10
2017,05,05,06,46,14.10
2017,05,05,06,47,14.10
2017,05,05,06,48,14.10
2017,05,05,06,49,14.10
2017,05,05,06,50,14.10
2017,05,05,06,51,14.10
2017,05,05,06,52,14.10
2017,05,05,06,53,14.10
2017,05,05,06,54,14.10
2017,05,05,06,55,14.10
2017,05,05,06,56,14.10
2017,05,05,06,57,14.10
2017,05,05,06,58,14.10
2017,05,05,06,59,14.10
2017,05,05,07,00,14.10
2017,05,05,07,01,14.10
2017,05,05,07,02,14.10
2017,05,05,07,03,14.10
2017,05,05,07,04,14.10
2017,05,05,07,05,14.10
2017,05,05,07,06,14.10
2017,05,05,07,07,14.10
2017,05,05,07,08,14.20
2017,05,05,07,09,14.20
2017,05,05,07,10,14.20
2017,05,05,07,11,14.20
2017,05,05,07,12,14.20
2017,05,05,07,13,14.20
2017,05,05,07,14,14.20
2017,05,05,07,15,14.20
2017,05,05,07,16,14.20
2017,05,05,07,17,14.10
2017,05,05,07,18,14.10
2017,05,05,07,19,14.10
2017,05,05,07,20,14.10
2017,05,05,07,21,14.10
2017,05,05,07,22,14.20
2017,05,05,07,23,14.20
2017,05,05,07,24,14.20
2017,05,05,07,25,14.20
2017,05,05,07,26,14.20
2017,05,05,07,27,14.20
2017,05,05,07,28,14.20
2017,05,05,07,29,14.20
2017,05,05,07,30,14.20
2017,05,05,07,31,14.20
2017,05,05,07,32,14.20
2017,05,05,07,33,14.20
2017,05,05,07,34,14.20
2017,05,05,07,35,14.20
2017,05,05,07,36,14.30
2017,05,05,07,37,14.30
2017,05,05,07,38,14.30
2017,05,05,07,39,14.30
2017,05,05,07,40,14.40
2017,05,05,07,41,14.40
2017,05,05,07,42,14.40
2017,05,05,07,43,14.50
2017,05,05,07,44,14.50
2017,05,05,07,45,14.60
2017,05,05,07,46,14.60
2017,05,05,07,47,14.60
2017,05,05,07,48,14.70
2017,05,05,07,49,14.70
2017,05,05,07,50,14.70
2017,05,05,07,51,14.80
2017,05,05,07,52,14.80
2017,05,05,07,53,14.80
2017,05,05,07,54,14.80
2017,05,05,07,55,14.80
2017,05,05,07,56,14.90
2017,05,05,07,57,14.90
2017,05,05,07,58,14.90
2017,05,05,07,59,14.90
2017,05,05,08,00,14.90
2017,05,05,08,01,14.90
2017,05,05,08,02,14.90
2017,05,05,08,03,15.00
2017,05,05,08,04,15.00
2017,05,05,08,05,15.00
2017,05,05,08,06,15.00
2017,05,05,08,07,15.00
2017,05,05,08,08,15.00
2017,05,05,08,09,15.10
2017,05,05,08,10,15.10
2017,05,05,08,11,15.10
2017,05,05,08,12,15.10
2017,05,05,08,13,15.10
2017,05,05,08,14,15.00
2017,05,05,08,15,15.00
2017,05,05,08,16,15.00
2017,05,05,08,17,15.00
2017,05,05,08,18,15.00
2017,05,05,08,19,14.90
2017,05,05,08,20,14.90
2017,05,05,08,21,14.90
2017,05,05,08,22,14.80
2017,05,05,08,23,14.80
2017,05,05,08,24,14.70
2017,05,05,08,25,14.60
2017,05,05,08,26,14.50
2017,05,05,08,27,14.50
2017,05,05,08,28,14.40
2017,05,05,08,29,14.40
2017,05,05,08,30,14.40
2017,05,05,08,31,14.30
2017,05,05,08,32,14.30
2017,05,05,08,33,14.20
2017,05,05,08,34,14.20
2017,05,05,08,35,14.20
2017,05,05,08,36,14.10
2017,05,05,08,37,14.10
2017,05,05,08,38,14.10
2017,05,05,08,39,14.10
2017,05,05,08,40,14.10
2017,05,05,08,41,14.10
2017,05,05,08,42,14.10
2017,05,05,08,43,14.10
2017,05,05,08,44,14.20
2017,05,05,08,45,14.20
2017,05,05,08,46,14.30
2017,05,05,08,47,14.30
2017,05,05,08,48,14.40
2017,05,05,08,49,14.40
2017,05,05,08,50,14.50
2017,05,05,08,51,14.50
2017,05,05,08,52,14.60
2017,05,05,08,53,14.70
2017,05,05,08,54,14.70
2017,05,05,08,55,14.80
2017,05,05,08,56,14.80
2017,05,05,08,57,14.80
2017,05,05,08,58,14.90
2017,05,05,08,59,15.00
2017,05,05,09,00,15.00
2017,05,05,09,01,15.10
2017,05,05,09,02,15.10
2017,05,05,09,03,15.20
2017,05,05,09,04,15.20
2017,05,05,09,05,15.20
2017,05,05,09,06,15.20
2017,05,05,09,07,15.20
2017,05,05,09,08,15.10
2017,05,05,09,09,15.10
2017,05,05,09,10,15.10
2017,05,05,09,11,15.00
2017,05,05,09,12,15.00
2017,05,05,09,13,14.90
2017,05,05,09,14,14.90
2017,05,05,09,15,14.90
2017,05,05,09,16,14.80
2017,05,05,09,17,14.80
2017,05,05,09,18,14.80
2017,05,05,09,19,14.80
2017,05,05,09,20,14.70
2017,05,05,09,21,14.70
2017,05,05,09,22,14.70
2017,05,05,09,23,14.70
2017,05,05,09,24,14.70
2017,05,05,09,25,14.60
2017,05,05,09,26,14.60
2017,05,05,09,27,14.60
2017,05,05,09,28,14.60
2017,05,05,09,29,14.60
2017,05,05,09,30,14.60
2017,05,05,09,31,14.60
2017,05,05,09,32,14.60
2017,05,05,09,33,14.60
2017,05,05,09,34,14.60
2017,05,05,09,35,14.60
2017,05,05,09,36,14.60
2017,05,05,09,37,14.60
2017,05,05,09,38,14.60
2017,05,05,09,39,14.60
2017,05,05,09,40,14.60
2017,05,05,09,41,14.60
2017,05,05,09,42,14.70
2017,05,05,09,43,14.70
2017,05,05,09,44,14.80
2017,05,05,09,45,14.80
2017,05,05,09,46,14.90
2017,05,05,09,47,14.90
2017,05,05,09,48,15.00
2017,05,05,09,49,15.20
2017,05,05,09,50,15.20
2017,05,05,09,51,15.30
2017,05,05,09,52,15.30
2017,05,05,09,53,15.40
2017,05,05,09,54,15.40
2017,05,05,09,55,15.40
2017,05,05,09,56,15.40
2017,05,05,09,57,15.40
2017,05,05,09,58,15.40
2017,05,05,09,59,15.40
2017,05,05,10,00,15.40
2017,05,05,10,01,15.40
2017,05,05,10,02,15.40
2017,05,05,10,03,15.40
2017,05,05,10,04,15.50
2017,05,05,10,05,15.50
2017,05,05,10,06,15.50
2017,05,05,10,07,15.50
2017,05,05,10,08,15.40
2017,05,05,10,09,15.40
2017,05,05,10,10,15.40
2017,05,05,10,11,15.40
2017,05,05,10,12,15.40
2017,05,05,10,13,15.40
2017,05,05,10,14,15.30
2017,05,05,10,15,15.30
2017,05,05,10,16,15.20
2017,05,05,10,17,15.10
2017,05,05,10,18,15.00
2017,05,05,10,19,15.00
2017,05,05,10,20,14.90
2017,05,05,10,21,14.90
2017,05,05,10,22,14.80
2017,05,05,10,23,14.80
2017,05,05,10,24,14.80
2017,05,05,10,25,14.80
2017,05,05,10,26,14.90
2017,05,05,10,27,14.90
2017,05,05,10,28,14.90
2017,05,05,10,29,15.00
2017,05,05,10,30,15.10
2017,05,05,10,31,15.20
2017,05,05,10,32,15.30
2017,05,05,10,33,15.30
2017,05,05,10,34,15.40
2017,05,05,10,35,15.40
2017,05,05,10,36,15.50
2017,05,05,10,37,15.50
2017,05,05,10,38,15.60
2017,05,05,10,39,15.60
2017,05,05,10,40,15.70
2017,05,05,10,41,15.70
2017,05,05,10,42,15.80
2017,05,05,10,43,15.90
2017,05,05,10,44,15.90
2017,05,05,10,45,15.90
2017,05,05,10,46,15.80
2017,05,05,10,47,15.80
2017,05,05,10,48,15.70
2017,05,05,10,49,15.70
2017,05,05,10,50,15.60
2017,05,05,10,51,15.50
2017,05,05,10,52,15.50
2017,05,05,10,53,15.50
2017,05,05,10,54,15.40
2017,05,05,10,55,15.40
2017,05,05,10,56,15.40
2017,05,05,10,57,15.50
2017,05,05,10,58,15.50
2017,05,05,10,59,15.60
2017,05,05,11,00,15.60
2017,05,05,11,01,15.60
2017,05,05,11,02,15.60
2017,05,05,11,03,15.60
2017,05,05,11,04,15.60
2017,05,05,11,05,15.50
2017,05,05,11,06,15.40
2017,05,05,11,07,15.30
2017,05,05,11,08,15.20
2017,05,05,11,09,15.10
2017,05,05,11,10,15.10
2017,05,05,11,11,15.00
2017,05,05,11,12,14.90
2017,05,05,11,13,14.90
2017,05,05,11,14,14.90
2017,05,05,11,15,14.80
2017,05,05,11,16,14.80
2017,05,05,11,17,14.80
2017,05,05,11,18,14.70
2017,05,05,11,19,14.70
2017,05,05,11,20,14.60
2017,05,05,11,21,14.60
2017,05,05,11,22,14.50
2017,05,05,11,23,14.50
2017,05,05,11,24,14.40
2017,05,05,11,25,14.40
2017,05,05,11,26,14.40
2017,05,05,11,27,14.30
2017,05,05,11,28,14.30
2017,05,05,11,29,14.20
2017,05,05,11,30,14.20
2017,05,05,11,31,14.10
2017,05,05,11,32,14.00
2017,05,05,11,33,14.00
2017,05,05,11,34,13.90
2017,05,05,11,35,13.80
2017,05,05,11,36,13.80
2017,05,05,11,37,13.70
2017,05,05,11,38,13.60
2017,05,05,11,39,13.60
2017,05,05,11,40,13.50
2017,05,05,11,41,13.50
2017,05,05,11,42,13.40
2017,05,05,11,43,13.40
2017,05,05,11,44,13.40
2017,05,05,11,45,13.30
2017,05,05,11,46,13.30
2017,05,05,11,47,13.30
2017,05,05,11,48,13.30
2017,05,05,11,49,13.20
2017,05,05,11,50,13.20
2017,05,05,11,51,13.20
2017,05,05,11,52,13.20
2017,05,05,11,53,13.20
2017,05,05,11,54,13.20
2017,05,05,11,55,13.20
2017,05,05,11,56,13.20
2017,05,05,11,57,13.20
2017,05,05,11,58,13.20
2017,05,05,11,59,13.20
2017,05,05,12,00,13.20
2017,05,05,12,01,13.20
2017,05,05,12,02,13.20
2017,05,05,12,03,13.20
2017,05,05,12,04,13.30
2017,05,05,12,05,13.30
2017,05,05,12,06,13.30
2017,05,05,12,07,13.40
2017,05,05,12,08,13.40
2017,05,05,12,09,13.40
2017,05,05,12,10,13.40
2017,05,05,12,11,13.50
2017,05,05,12,12,13.50
2017,05,05,12,13,13.60
2017,05,05,12,14,13.60
2017,05,05,12,15,13.60
2017,05,05,12,16,13.70
2017,05,05,12,17,13.80
2017,05,05,12,18,13.80
2017,05,05,12,19,13.80
2017,05,05,12,20,13.90
2017,05,05,12,21,13.90
2017,05,05,12,22,13.90
2017,05,05,12,23,13.90
2017,05,05,12,24,13.90
2017,05,05,12,25,14.00
2017,05,05,12,26,14.00
2017,05,05,12,27,14.10
2017,05,05,12,28,14.10
2017,05,05,12,29,14.20
2017,05,05,12,30,14.20
2017,05,05,12,31,14.30
2017,05,05,12,32,14.30
2017,05,05,12,33,14.40
2017,05,05,12,34,14.50
2017,05,05,12,35,14.60
2017,05,05,12,36,14.60
2017,05,05,12,37,14.70
2017,05,05,12,38,14.70
2017,05,05,12,39,14.80
2017,05,05,12,40,14.80
2017,05,05,12,41,14.80
2017,05,05,12,42,14.80
2017,05,05,12,43,14.90
2017,05,05,12,44,14.90
2017,05,05,12,45,14.90
2017,05,05,12,46,14.90
2017,05,05,12,47,14.90
2017,05,05,12,48,14.90
2017,05,05,12,49,14.90
2017,05,05,12,50,14.90
2017,05,05,12,51,14.90
2017,05,05,12,52,14.80
2017,05,05,12,53,14.80
2017,05,05,12,54,14.70
2017,05,05,12,55,14.70
2017,05,05,12,56,14.80
2017,05,05,12,57,14.80
2017,05,05,12,58,14.80
2017,05,05,12,59,14.80
2017,05,05,13,00,14.80
2017,05,05,13,01,14.80
2017,05,05,13,02,14.80
2017,05,05,13,03,14.80
2017,05,05,13,04,14.80
2017,05,05,13,05,14.90
2017,05,05,13,06,14.90
2017,05,05,13,07,14.90
2017,05,05,13,08,14.90
2017,05,05,13,09,15.00
2017,05,05,13,10,15.00
2017,05,05,13,11,15.00
2017,05,05,13,12,15.10
2017,05,05,13,13,15.10
2017,05,05,13,14,15.10
2017,05,05,13,15,15.20
2017,05,05,13,16,15.20
2017,05,05,13,17,15.30
2017,05,05,13,18,15.40
2017,05,05,13,19,15.50
2017,05,05,13,20,15.50
2017,05,05,13,21,15.50
2017,05,05,13,22,15.50
2017,05,05,13,23,15.50
2017,05,05,13,24,15.50
2017,05,05,13,25,15.50
2017,05,05,13,26,15.50
2017,05,05,13,27,15.50
2017,05,05,13,28,15.40
2017,05,05,13,29,15.40
2017,05,05,13,30,15.20
2017,05,05,13,31,15.10
2017,05,05,13,32,15.00
2017,05,05,13,33,15.00
2017,05,05,13,34,15.00
2017,05,05,13,35,14.90
2017,05,05,13,36,14.90
2017,05,05,13,37,14.90
2017,05,05,13,38,14.90
2017,05,05,13,39,14.90
2017,05,05,13,40,14.90
2017,05,05,13,41,14.90
2017,05,05,13,42,14.90
2017,05,05,13,43,14.80
2017,05,05,13,44,14.70
2017,05,05,13,45,14.50
2017,05,05,13,46,14.40
2017,05,05,13,47,14.30
2017,05,05,13,48,14.30
2017,05,05,13,49,14.30
2017,05,05,13,50,14.30
2017,05,05,13,51,14.30
2017,05,05,13,52,14.30
2017,05,05,13,53,14.40
2017,05,05,13,54,14.50
2017,05,05,13,55,14.60
2017,05,05,13,56,14.70
2017,05,05,13,57,14.70
2017,05,05,13,58,14.80
2017,05,05,13,59,14.80
2017,05,05,14,00,14.80
2017,05,05,14,01,14.80
2017,05,05,14,02,14.80
2017,05,05,14,03,14.80
2017,05,05,14,04,14.80
2017,05,05,14,05,14.80
2017,05,05,14,06,14.80
2017,05,05,14,07,14.70
2017,05,05,14,08,14.70
2017,05,05,14,09,14.70
2017,05,05,14,10,14.60
2017,05,05,14,11,14.60
2017,05,05,14,12,14.60
2017,05,05,14,13,14.60
2017,05,05,14,14,14.50
2017,05,05,14,15,14.50
2017,05,05,14,16,14.50
2017,05,05,14,17,14.50
2017,05,05,14,18,14.60
2017,05,05,14,19,14.60
2017,05,05,14,20,14.60
2017,05,05,14,21,14.60
2017,05,05,14,22,14.70
2017,05,05,14,23,14.70
2017,05,05,14,24,14.80
2017,05,05,14,25,14.90
2017,05,05,14,26,14.90
2017,05,05,14,27,14.90
2017,05,05,14,28,14.90
2017,05,05,14,29,14.80
2017,05,05,14,30,14.90
2017,05,05,14,31,14.90
2017,05,05,14,32,14.90
2017,05,05,14,33,14.90
2017,05,05,14,34,14.90
2017,05,05,14,35,14.80
2017,05,05,14,36,14.70
2017,05,05,14,37,14.60
2017,05,05,14,38,14.50
2017,05,05,14,39,14.40
2017,05,05,14,40,14.40
2017,05,05,14,41,14.40
2017,05,05,14,42,14.40
2017,05,05,14,43,14.50
2017,05,05,14,44,14.50
2017,05,05,14,45,14.50
2017,05,05,14,46,14.40
2017,05,05,14,47,14.30
2017,05,05,14,48,14.30
2017,05,05,14,49,14.30
2017,05,05,14,50,14.30
2017,05,05,14,51,14.30
2017,05,05,14,52,14.30
2017,05,05,14,53,14.20
2017,05,05,14,54,14.10
2017,05,05,14,55,14.00
2017,05,05,14,56,13.90
2017,05,05,14,57,13.90
2017,05,05,14,58,13.90
2017,05,05,14,59,13.90
2017,05,05,15,00,13.80
2017,05,05,15,01,13.80
2017,05,05,15,02,13.70
2017,05,05,15,03,13.70
2017,05,05,15,04,13.70
2017,05,05,15,05,13.70
2017,05,05,15,06,13.70
2017,05,05,15,07,13.60
2017,05,05,15,08,13.70
2017,05,05,15,09,13.70
2017,05,05,15,10,13.70
2017,05,05,15,11,13.70
2017,05,05,15,12,13.70
2017,05,05,15,13,13.60
2017,05,05,15,14,13.70
2017,05,05,15,15,13.70
2017,05,05,15,16,13.80
2017,05,05,15,17,13.80
2017,05,05,15,18,13.90
2017,05,05,15,19,14.00
2017,05,05,15,20,14.00
2017,05,05,15,21,14.10
2017,05,05,15,22,14.20
2017,05,05,15,23,14.20
2017,05,05,15,24,14.20
2017,05,05,15,25,14.30
2017,05,05,15,26,14.30
2017,05,05,15,27,14.30
2017,05,05,15,28,14.30
2017,05,05,15,29,14.30
2017,05,05,15,30,14.30
2017,05,05,15,31,14.30
2017,05,05,15,32,14.30
2017,05,05,15,33,14.30
2017,05,05,15,34,14.30
2017,05,05,15,35,14.30
2017,05,05,15,36,14.30
2017,05,05,15,37,14.40
2017,05,05,15,38,14.50
2017,05,05,15,39,14.60
2017,05,05,15,40,14.60
2017,05,05,15,41,14.70
2017,05,05,15,42,14.70
2017,05,05,15,43,14.80
2017,05,05,15,44,14.80
2017,05,05,15,45,14.70
2017,05,05,15,46,14.60
2017,05,05,15,47,14.60
2017,05,05,15,48,14.60
2017,05,05,15,49,14.60
2017,05,05,15,50,14.60
2017,05,05,15,51,14.70
2017,05,05,15,52,14.80
2017,05,05,15,53,14.80
2017,05,05,15,54,14.80
2017,05,05,15,55,14.70
2017,05,05,15,56,14.70
2017,05,05,15,57,14.60
2017,05,05,15,58,14.60
2017,05,05,15,59,14.50
2017,05,05,16,00,14.40
2017,05,05,16,01,14.30
2017,05,05,16,02,14.30
2017,05,05,16,03,14.30
2017,05,05,16,04,14.30
2017,05,05,16,05,14.30
2017,05,05,16,06,14.20
2017,05,05,16,07,14.20
2017,05,05,16,08,14.20
2017,05,05,16,09,14.20
2017,05,05,16,10,14.10
2017,05,05,16,11,14.10
2017,05,05,16,12,14.10
2017,05,05,16,13,14.10
2017,05,05,16,14,14.10
2017,05,05,16,15,14.20
2017,05,05,16,16,14.20
2017,05,05,16,17,14.20
2017,05,05,16,18,14.10
2017,05,05,16,19,14.10
2017,05,05,16,20,14.00
2017,05,05,16,21,13.90
2017,05,05,16,22,13.90
2017,05,05,16,23,13.90
2017,05,05,16,24,13.80
2017,05,05,16,25,13.80
2017,05,05,16,26,13.70
2017,05,05,16,27,13.80
2017,05,05,16,28,13.80
2017,05,05,16,29,13.80
2017,05,05,16,30,13.90
2017,05,05,16,31,13.90
2017,05,05,16,32,13.90
2017,05,05,16,33,14.00
2017,05,05,16,34,14.00
2017,05,05,16,35,14.10
2017,05,05,16,36,14.10
2017,05,05,16,37,14.10
2017,05,05,16,38,14.20
2017,05,05,16,39,14.20
2017,05,05,16,40,14.20
2017,05,05,16,41,14.20
2017,05,05,16,42,14.20
2017,05,05,16,43,14.20
2017,05,05,16,44,14.30
2017,05,05,16,45,14.30
2017,05,05,16,46,14.30
2017,05,05,16,47,14.20
2017,05,05,16,48,14.10
2017,05,05,16,49,14.00
2017,05,05,16,50,13.90
2017,05,05,16,51,13.90
2017,05,05,16,52,13.90
2017,05,05,16,53,13.80
2017,05,05,16,54,13.80
2017,05,05,16,55,13.70
2017,05,05,16,56,13.70
2017,05,05,16,57,13.60
2017,05,05,16,58,13.60
2017,05,05,16,59,13.60
2017,05,05,17,00,13.60
2017,05,05,17,01,13.70
2017,05,05,17,02,13.70
2017,05,05,17,03,13.70
2017,05,05,17,04,13.70
2017,05,05,17,05,13.70
2017,05,05,17,06,13.60
2017,05,05,17,07,13.60
2017,05,05,17,08,13.60
2017,05,05,17,09,13.50
2017,05,05,17,10,13.40
2017,05,05,17,11,13.40
2017,05,05,17,12,13.40
2017,05,05,17,13,13.40
2017,05,05,17,14,13.40
2017,05,05,17,15,13.50
2017,05,05,17,16,13.60
2017,05,05,17,17,13.60
2017,05,05,17,18,13.60
2017,05,05,17,19,13.60
2017,05,05,17,20,13.60
2017,05,05,17,21,13.50
2017,05,05,17,22,13.50